Regional Weather Roundup
Issued by NWS

Home | Current Version | Previous Version | Graphics & Text | Print | Product List | Glossary Off
Versions: 1 2 3 4 5 6 7 8 9 10 11 12 13 14 15 16 17 18 19 20 21 22 23 24 25 26 27 28 29 30 31 32 33 34 35 36 37 38 39 40 41 42 43 44 45 46 47 48 49 50

000
ASUS43 KDMX 271508
RWRIA

WEATHER ROUNDUP FOR IOWA
NATIONAL WEATHER SERVICE DES MOINES IA
1000 AM CDT SAT AUG 27 2016

NOTE: "FAIR" INDICATES FEW OR NO CLOUDS BELOW 12,000 FEET WITH NO
SIGNIFICANT WEATHER AND/OR OBSTRUCTIONS TO VISIBILITY.

* - THESE STATIONS ARE NOT NWS STATIONS...THUS NOT UNDER NWS
QUALITY CONTROL.  THEY ALSO DO NOT REPORT WEATHER SUCH
AS PRECIPITATION OR FOG.

IAZ001>003-012>014-020>022-031>034-043>046-271600-
   NORTHWEST IOWA

CITY           SKY/WX    TMP DP  RH WIND       PRES   REMARKS
CARROLL *      CLOUDY    64  64 100 CALM      30.04S FOG
CHEROKEE *     CLOUDY    64  64 100 SW3       30.03S FOG
DENISON *      CLOUDY    66  66 100 CALM      30.02S FOG
LE MARS *      CLOUDY    66  64  94 S6        30.03S
ORANGE CITY *  CLOUDY    64  64 100 S6        30.02F FOG
SHELDON *      CLOUDY    63  63 100 S6        30.01F FOG
SIOUX CITY     CLOUDY    67  64  90 S3        30.02F
SPENCER        CLOUDY    62  60  93 S6        30.04R FOG
STORM LAKE *   FOG       63  63 100 S7        30.04F VSB 3/4
$$

IAZ055>058-069>071-079>083-090>094-271600-
   SOUTHWEST IOWA

CITY           SKY/WX    TMP DP  RH WIND       PRES   REMARKS
ATLANTIC *     CLOUDY    66  66 100 CALM      30.04S FOG
AUDUBON *      CLOUDY    64  63  94 SE3       30.05S FOG
CLARINDA *       N/A     72  68  88 MISG      30.05R
COUNCIL BLFS * PTSUNNY   68  68 100 W5        30.03S
CRESTON *      CLOUDY    68  68 100 S3        30.06S
HARLAN  *      FOG       66  66 100 SE3       30.07S VSB 1/4
LAMONI         CLOUDY    70  69  97 E5        30.05S
RED OAK *      CLOUDY    70  68  94 CALM      30.04R
SHENANDOAH *   CLOUDY    72 -36   1 CALM      30.04R
$$

IAZ047>049-059>061-072>074-084-271600-
   CENTRAL IOWA

CITY           SKY/WX    TMP DP  RH WIND       PRES   REMARKS
AMES           CLOUDY    66  66 100 W3        30.04S
ANKENY *         N/A    N/A N/A N/A MISG        N/A
BOONE *        CLOUDY    64  64 100 CALM      30.03F FOG
CHARITON *       N/A     68  66  94 MISG      30.05S
DES MOINES     CLOUDY    67  65  93 S3        30.04S FOG
GRINNELL*      CLOUDY    68  66  93 SW6       30.05R
KNOXVILLE *    CLOUDY    66  64  94 W5        30.04S FOG
MARSHALLTOWN   CLOUDY    66  66 100 SW5       30.04R FOG
NEWTON *       CLOUDY    66  66 100 SW5       30.04S FOG
PERRY *        CLOUDY    65  65  98 CALM      30.04S
$$

IAZ004>006-015-016-023>025-035-036-271600-
   NORTH CENTRAL IOWA

CITY           SKY/WX    TMP DP  RH WIND       PRES   REMARKS
ALGONA *       CLOUDY    63  61  94 S9        30.04S FOG
ESTHERVILLE    CLOUDY    60  60 100 S7        30.04R
FORT DODGE *   CLOUDY    63  61  94 S6        30.05F
MASON CITY     CLOUDY    63  62  97 SE9       30.05F FOG
FOREST CITY *    N/A    N/A N/A N/A MISG        N/A
WEBSTER CITY * CLOUDY    64  64 100 S6        30.03F FOG
IOWA FALLS *   CLOUDY    65  63  91 SE3       30.06S
$$

IAZ007>011-017>019-026>030-037>042-050>054-066-271600-
   NORTHEAST IOWA

CITY           SKY/WX    TMP DP  RH WIND       PRES   REMARKS
CEDAR RAPIDS   CLOUDY    71  71 100 SW8       30.02S
CHARLES CITY * CLOUDY    64  64 100 SE8       30.05S
CLINTON *      CLOUDY    74  71  91 SW9       30.02F
DECORAH *      CLOUDY    64  64 100 E7        30.04F
DUBUQUE        CLOUDY    66  65  96 E5        30.04F FOG
MONTICELLO *   CLOUDY    68  68 100 CALM      30.02S FOG
OELWEIN *      CLOUDY    64  64 100 E5        30.05R FOG
WATERLOO       CLOUDY    65  63  93 E5        30.03R
$$

IAZ064-065-067-068-078-271600-
   EAST CENTRAL IOWA

CITY           SKY/WX    TMP DP  RH WIND       PRES   REMARKS
DAVENPORT      CLOUDY    74  69  85 SW13      30.03S
IOWA CITY      CLOUDY    73  69  87 W10       30.04S
MT. PLEASANT * PTSUNNY   76  72  88 SW8       30.04F
MUSCATINE *    CLOUDY    73  68  83 SW9G15    30.03S
QUAD CITIES    PTSUNNY   76  69  79 SW14      30.02S
$$

IAZ062-063-075>077-085>089-095>099-271600-
   SOUTHEAST IOWA

CITY           SKY/WX    TMP DP  RH WIND       PRES   REMARKS
BURLINGTON     MOSUNNY   73  71  93 W7        30.04S
FAIRFIELD *    CLOUDY    73  68  83 SW9       30.04S
FORT MADISON * MOSUNNY   75  70  83 W5        30.06R
KEOKUK *       MOSUNNY   77  70  78 W12       30.04S
OSKALOOSA *    CLOUDY    69  67  92 W6        30.05S
CENTERVILLE *    N/A     73  68  83 SW8       30.07S
OTTUMWA        CLOUDY    71  67  87 SW7       30.05R
WASHINGTON *   CLOUDY    73  70  88 SW9G15    30.05R
$$

ABBREVIATIONS USED IN REMARKS
   TC - TEMPERATURES IN CELSIUS
  WCI - WIND CHILL INDEX
   HX - HEAT INDEX
  VSB - VISIBILITY
$$




USA.gov is the U.S. government's official web portal to all federal, state and local government web resources and services.